Location: College Park
(38.9810°N, 76.9370°W)
Time: 14:04:41
(UTC-05:00)

ISS - Pass Details

Date: 19 November 2017
Orbit: 402 x 407 km, 51.6° (Epoch: 22 November)

Event Time Altitude Azimuth Distance (km) Brightness Sun altitude
Exits shadow 04:52:22 25° 151° (SSE) 862 -1.9 -23.7°
Drops below altitude 10° 04:53:53 10° 142° (SE) 1,445 -0.5 -23.4°
Sets 04:55:57 0° 138° (SE) 2,300 0.7 -23.0°
